Regional Weather Roundup
Issued by NWS

Home | Current Version | Previous Version | Text Only | Print | Product List | Glossary Off
Versions: 1 2 3 4 5 6 7 8 9 10 11 12 13 14 15 16 17 18 19 20 21 22 23 24 25 26 27 28 29 30 31 32 33 34 35 36 37 38 39 40 41 42 43 44 45 46 47 48 49 50

000
ASUS43 KDTX 272301
RWRMI
MICHIGAN HOURLY REGIONAL WEATHER ROUNDUP
NATIONAL WEATHER SERVICE DETROIT/PONTIAC MI
600 PM EST TUE JAN 27 2015

NOTE: "FAIR" INDICATES FEW OR NO CLOUDS BELOW 12,000 FEET WITH NO
SIGNIFICANT WEATHER AND/OR OBSTRUCTION TO VISIBILITY.

MIZ047>049-052>055-059>063-066>070-074>076-081>083-280000-
SOUTHEAST LOWER MICHIGAN

CITY           SKY/WX    TMP DP  RH WIND       PRES   REMARKS
ADRIAN         CLEAR     22  12  65 N10       30.18R WCI  11
ALMA           CLEAR     23   5  46 CALM      30.21R
ANN ARBOR      CLEAR     23  12  62 N13       30.17R WCI  11
BAD AXE        CLEAR     18  11  74 N7        30.20R WCI   9
CARO           CLEAR     20  13  75 N6        30.19S WCI  12
DETROIT CITY   CLEAR     25  11  55 N9        30.17R WCI  15
DETROIT        FAIR      25  10  53 NW8       30.17R WCI  16
FLINT          CLEAR     22  10  60 N9        30.20R WCI  12
GROSSE ILE     CLEAR     25   9  50 N5        30.15R WCI  19
HILLSDALE      CLEAR     22  11  60 CALM      30.14R
HOWELL         CLEAR     20  10  66 N7        30.18R WCI  11

CITY           SKY/WX    TMP DP  RH WIND       PRES   REMARKS
JACKSON        CLEAR     22  10  60 N7        30.17R WCI  13
LAMBERTVILLE   CLEAR     27  14  59 N6        30.17R WCI  20
LANSING        CLEAR     21   9  59 N5        30.20R WCI  15
LAPEER         FAIR      20  11  68 N7        30.18R WCI  11
MASON          CLEAR     22  11  64 N6        30.18R WCI  14
MONROE         CLEAR     25  12  58 N6        30.15R WCI  18
MT. CLEMENS    PTCLDY    21  11  66 N14       30.15R WCI   8
PONTIAC        PTCLDY    21   9  59 NW13      30.15R WCI   9
PORT HOPE        N/A     22  12  65 N13       30.19R WCI  10
PORT HURON     PTCLDY    21  12  68 N7        30.17R WCI  13
TRI CITIES     CLEAR     21  12  68 E5        30.22R WCI  15
TROY           CLEAR     26   7  43 N5        30.18R WCI  21
SAGINAW HB     CLEAR     21  14  73 N5        30.22R WCI  15
$$
MIZ043>046-050>051-056>058-064>065-071>073-077>080-280000-
SOUTHWEST LOWER MICHIGAN

CITY           SKY/WX    TMP DP  RH WIND       PRES   REMARKS
BATTLE CREEK   CLEAR     25  10  53 N6        30.18R WCI  18
BENTON HARBOR  CLEAR     24  12  60 N3        30.21R
BIG RAPIDS     CLEAR     26   5  42 CALM      30.18R
COLDWATER      CLEAR     23  10  58 N3        30.17R
FREMONT        FAIR      24   7  49 NW3       30.20R
HOLLAND        CLEAR     27  10  49 CALM      30.22R
GRAND RAPIDS   CLEAR     25   6  44 NE5       30.20R WCI  19
IONIA          FAIR      23   5  45 N3        30.19R
KALAMAZOO      CLEAR     23  11  60 N8        30.19R WCI  14
LUDINGTON      CLEAR     23  13  64 N6        30.23R WCI  16
MARSHALL       CLEAR     23   9  55 CALM      30.17R
MOUNT PLEASANT CLEAR     24   4  43 CALM      30.20R
MUSKEGON       CLEAR     25  13  60 NW5       30.22R WCI  19
SOUTH HAVEN    CLEAR     26  14  59 N3        30.21R
$$
MIZ016>042-280000-
NORTHERN LOWER MICHIGAN

CITY           SKY/WX    TMP DP  RH WIND       PRES   REMARKS
ALPENA         CLEAR     14   3  61 N7        30.24R WCI   4
BEAVER ISLAND  CLEAR     12  -1  55 CALM      30.25S
BELLAIRE       CLEAR     22   9  58 CALM      30.24R
CADILLAC       CLEAR     21   4  48 NW5       30.16S WCI  15
CHARLEVOIX     CLEAR     18   9  67 N5        30.27S WCI  11
FRANKFORT      CLEAR     23  13  66 N3        30.23S
GAYLORD        CLEAR     19   0  43 CALM      30.17R
GRAYLING       CLEAR     18  -1  43 NW5       30.19R WCI  11
HARBOR SPRINGS CLEAR     15   8  71 CALM      30.23S
HOUGHTON LAKE  CLEAR     22  -3  33 N3        30.18R
MANISTEE       CLEAR     25  12  58 NW5       30.24R WCI  19
OSCODA         CLEAR     16   9  71 NE6       30.22R WCI   8
PELLSTON       CLEAR     15   4  61 NE5       30.24S WCI   8
ROGERS CITY    CLEAR     17   8  70 CALM      30.26R
TRAVERSE CITY  PTCLDY    23   7  50 N8        30.23R WCI  14
$$
MIZ007>008-015-280000-
EASTERN UPPER MICHIGAN

CITY           SKY/WX    TMP DP  RH WIND       PRES   REMARKS
KINROSS        CLEAR     12  -2  52 CALM      30.23S
MACKINAC ISLAN CLEAR     13   4  67 SW3       30.23S
NEWBERRY       CLEAR     11  -3  53 CALM      30.22S
S. S. MARIE    CLEAR     14  -3  47 W6        30.24S WCI   5
MUNISING         N/A     19  10  68 CALM      30.23R
$$
MIZ004>006-011>014-085-280000-
CENTRAL UPPER MICHIGAN

CITY           SKY/WX    TMP DP  RH WIND       PRES   REMARKS
MANISTIQUE     CLEAR     17  11  78 CALM      30.24S
ESCANABA       CLOUDY    21  16  79 CALM      30.25R
MENOMINEE      CLOUDY    23  16  74 E3        30.24S
$$
MIZ001>003-009>011-084-280000-
WESTERN UPPER MICHIGAN

CITY           SKY/WX    TMP DP  RH WIND       PRES   REMARKS
IRON MOUNTAIN  CLOUDY    23  16  74 S3        30.19S
HOUGHTON       CLOUDY    25  18  74 S7        30.16S WCI  17
COPPER HARBOR    N/A     26  18  71 CALM      30.20S
IRONWOOD       CLOUDY    27  25  93 S3        30.12F
$$

ABBREVIATIONS USED IN REMARKS
   TC - TEMPERATURE IN CELSIUS
  WCI - WIND CHILL INDEX
   HX - HEAT INDEX
  VSB - VISIBILITY




USA.gov is the U.S. government's official web portal to all federal, state and local government web resources and services.